Regional Weather Roundup
Issued by NWS

Home | Current Version | Previous Version | Graphics & Text | Print | Product List | Glossary On
Versions: 1 2 3 4 5 6 7 8 9 10 11 12 13 14 15 16 17 18 19 20 21 22 23 24 25 26 27 28 29 30 31 32 33 34 35 36 37 38 39 40 41 42 43 44 45 46 47 48 49 50
000
ASUS43 KMPX 251301
RWRMN
WEATHER ROUNDUP FOR MINNESOTA
NATIONAL WEATHER SERVICE TWIN CITIES/CHANHASSEN MN
800 AM CDT MON JUL 25 2016


NOTE: "FAIR" INDICATES FEW OR NO CLOUDS BELOW 12,000 FEET WITH NO
SIGNIFICANT WEATHER AND/OR OBSTRUCTIONS TO VISIBILITY. N/A MEANS
CURRENT SKY AND/OR WEATHER CONDITIONS ARE NOT AVAILABLE.

MNZ060>063-068>070-251400-
   Twin Cities Metro

CITY           SKY/WX    TMP DP  RH WIND       PRES   REMARKS
TWIN CITIES    SUNNY     72  62  71 W6        30.06R
ST PAUL        SUNNY     72  62  71 W6        30.06R
CRYSTAL        SUNNY     72  60  66 NW6       30.05R
BLAINE         SUNNY     72  63  73 W6        30.05R
LAKEVILLE      SUNNY     68  63  83 W6        30.06S
EDEN PRAIRIE   SUNNY     69  63  81 SW5       30.06R
LAKEVILLE      SUNNY     68  63  83 W6        30.06S
SOUTH ST PAUL  SUNNY     71  62  75 W3        30.06R
LAKE ELMO      FAIR      70  63  78 NW3       30.06S
$$
MNZ001>005-007-008-013>017-022>024-027-028-251400-
   Northwest Minnesota

CITY           SKY/WX    TMP DP  RH WIND       PRES   REMARKS
BEMIDJI        SUNNY     63  59  88 W8        30.04R
HALLOCK        SUNNY     64  61  88 CALM      29.99S
ROSEAU         SUNNY     64  61  88 SW5       30.00S
WARROAD        SUNNY     64  61  88 SW3       29.99F
THIEF RVR FALL SUNNY     64  61  90 SW3       30.04R
CROOKSTON      SUNNY     64  61  88 CALM      30.03S
FOSSTON        SUNNY     63  61  94 CALM      30.05R
DETROIT LAKES  SUNNY     66  59  77 CALM      30.07R
MOORHEAD       SUNNY     64  61  88 S5        30.05R
PARK RAPIDS    SUNNY     66  60  81 W6        30.06R
MAHNOMEN       FAIR      62  59  88 CALM      30.04S
$$
MNZ006-009>011-018-025>026-251400-
   North Central Minnesota

CITY           SKY/WX    TMP DP  RH WIND       PRES   REMARKS
BAUDETTE       SUNNY     66  62  87 W6        29.99S
FLAG ISLAND    SUNNY     66  59  77 W9        29.97R
INTL FALLS     SUNNY     65  61  87 VRB3      29.99R
WASKISH        SUNNY     70  63  78 W7        30.02R
BIG FORK       SUNNY     64  63  94 W3        30.02R
LONGVILLE      SUNNY     66  63  88 CALM      30.04R
GRAND RAPIDS   SUNNY     67  63  87 W7        30.05R
ORR            SUNNY     63  57  82 CALM      29.98R
COOK           SUNNY     63  61  94 W5        30.01R
WALKER         FAIR      64  60  85 W3        30.04R
$$
MNZ012-019>021-037-251400-
   Northeast Minnesota

CITY           SKY/WX    TMP DP  RH WIND       PRES   REMARKS
DULUTH         SUNNY     68  61  78 NW10      30.01R
ELY            SUNNY     64  59  82 NW3       29.99S
HIBBING        SUNNY     65  61  87 W5        30.02R
EVELETH        SUNNY     65  60  83 W6        30.01S
DULUTH HARBOR  SUNNY     70  64  83 SW8       30.00R
TWO HARBORS    SUNNY     70  63  78 CALM      29.97R
SILVER BAY     SUNNY     70  61  73 CALM      29.95R
GRAND MARAIS     N/A     63  53  70 S12       29.90R
G MARAIS ARPRT SUNNY     64  54  68 NW8G21    29.94S
$$
MNZ029>031-032-039>041-046>048-054>057-064-251400-
   West Central Minnesota

CITY           SKY/WX    TMP DP  RH WIND       PRES   REMARKS
FERGUS FALLS   SUNNY     64  63  94 CALM      30.08R
WHEATON        SUNNY     66  64  94 CALM      30.08R
MORRIS         SUNNY     68  63  83 CALM      30.07R
ALEXANDRIA     SUNNY     68  61  78 W6        30.10R
ELBOW LAKE     FAIR      67  61  81 CALM      30.07S
WADENA         SUNNY     64  61  88 W3        30.06R
GLENWOOD       SUNNY     68  61  77 W3        30.09S
APPLETON       SUNNY     68  63  83 CALM      30.07R
BENSON         SUNNY     66  59  77 CALM      30.08S
ORTONVILLE     SUNNY     66  61  82 CALM      30.08R
MADISON        SUNNY     68  63  83 CALM      30.07S
WILLMAR        FAIR      66  63  88 CALM      30.10R
$$
MNZ033>034-036-042>043-049>051-058-059-251400-
   Central Minnesota

CITY           SKY/WX    TMP DP  RH WIND       PRES   REMARKS
ST CLOUD       SUNNY     69  63  81 CALM      30.06R
SAUK CENTRE    FAIR      64  61  88 W5        30.09R
PAYNESVILLE    SUNNY     64  64  99 W6        30.09R
AITKIN         SUNNY     70  59  68 CALM      30.03R
PINE RIVER     SUNNY     64  61  88 CALM      30.08R
BRAINERD       SUNNY     68  61  78 W7        30.06R
STAPLES        SUNNY     64  61  88 W6        30.06R
LONG PRAIRIE   FAIR      68  59  73 W3        30.08R
LITTLE FALLS   SUNNY     64  59  82 CALM      30.06R
LITCHFIELD     SUNNY     70  64  83 W3        30.09R
BUFFALO        SUNNY     69  61  76 W3        30.08R
MAPLE LAKE     SUNNY     69  63  82 CALM      30.08R
HUTCHINSON     SUNNY     67  64  90 CALM      30.09R
$$
MNZ037-044-045-052-053-251400-
   East Central Minnesota

CITY           SKY/WX    TMP DP  RH WIND       PRES   REMARKS
PRINCETON      SUNNY     68  63  83 W5        30.06R
MORA           SUNNY     64  59  82 NW5       30.06R
CAMBRIDGE      SUNNY     70  57  64 W3        30.04R
RUSH CITY      SUNNY     67  61  80 NW3       30.04S
MOOSE LAKE     SUNNY     66  61  82 NW5       30.02R
HINCKLEY       FAIR      68  63  83 NW3       30.04R
CLOQUET        SUNNY     66  61  82 W7        30.02R
MCGREGOR       SUNNY     68  61  77 W6        30.04S
$$
MNZ071>073-080-081-089-090-097-098-251400-
   Southwest Minnesota

CITY           SKY/WX    TMP DP  RH WIND       PRES   REMARKS
MONTEVIDEO     SUNNY     72  64  78 CALM      30.10R
GRANITE FALLS  SUNNY     68  64  85 W3        30.10R
CANBY          SUNNY     70  61  73 SW5       30.10R
MARSHALL       SUNNY     68  63  84 CALM      30.10R
REDWOOD FALLS  SUNNY     69  60  73 NW5       30.09R
OLIVIA         SUNNY     64  61  88 NW3       30.08R
PIPESTONE      SUNNY     64  63  94 SE1       30.13R
WINDOM         SUNNY     66  63  88 CALM      30.12R
WORTHINGTON    SUNNY     69  62  78 SW3       30.14R
JACKSON        SUNNY     68  61  77 SW3       30.12R
SLAYTON        SUNNY     69  63  81 CALM      30.13R
$$
MNZ065>067-074>077-082>085-091>093-251400-
   South Central Minnesota

CITY           SKY/WX    TMP DP  RH WIND       PRES   REMARKS
MANKATO        SUNNY     66  61  82 W5        30.08S
NEW ULM        SUNNY     66  63  88 NW5       30.08S
ST JAMES       SUNNY     64  57  77 CALM      30.10R
FAIRMONT       SUNNY     66  61  82 W5        30.10R
GLENCOE        SUNNY     68  65  91 CALM      30.07S
FARIBAULT      SUNNY     68  64  88 SW5       30.08R
OWATONNA       SUNNY     66  64  94 CALM      30.08R
WASECA         SUNNY     64  63  94 SW6       30.10R
ALBERT LEA     SUNNY     70  64  83 CALM      30.10R
$$
MNZ078>079-086>088-094>096-251400-
   Southeast Minnesota

CITY           SKY/WX    TMP DP  RH WIND       PRES   REMARKS
ROCHESTER      SUNNY     68  64  87 W7        30.08R
RED WING       SUNNY     70  64  83 NW5       30.04R
STANTON        SUNNY     68  63  83 SW3       30.06R
DODGE CENTER   SUNNY     66  64  94 W6        30.08R
WINONA         SUNNY     70  63  78 NW6       30.05R
AUSTIN         SUNNY     66  64  94 CALM      30.09R
PRESTON        SUNNY     68  61  79 W8        30.08R
$$
ABBREVIATIONS USED IN REMARKS
   TC - TEMPERATURES IN CELSIUS
  WCI - WIND CHILL INDEX
   HX - HEAT INDEX
  VSB - VISIBILITY
$$



USA.gov is the U.S. government's official web portal to all federal, state and local government web resources and services.